Time,TemperatureF,DewpointF,PressureIn,WindDirection,WindDirectionDegrees,WindSpeedMPH,WindSpeedGustMPH,Humidity,HourlyPrecipIn,Conditions,Clouds,dailyrainin,SoftwareType,DateUTC
2013-01-27 00:00:00,19.6,16.0,30.44,West,268,0.0,-999.0,88,-99.99,,,12.00,ADS-WS1 bash script,2013-01-27 05:00:00,
2013-01-27 00:05:00,19.6,16.0,30.45,West,268,0.0,-999.0,88,-99.99,,,12.00,ADS-WS1 bash script,2013-01-27 05:05:00,
2013-01-27 00:10:00,19.4,16.0,30.45,West,268,0.0,-999.0,90,-99.99,,,12.00,ADS-WS1 bash script,2013-01-27 05:10:00,
2013-01-27 00:15:00,19.4,16.0,30.45,West,268,0.0,-999.0,90,-99.99,,,12.00,ADS-WS1 bash script,2013-01-27 05:15:00,
2013-01-27 00:20:00,19.2,16.0,30.45,West,268,1.0,-999.0,89,-99.99,,,12.00,ADS-WS1 bash script,2013-01-27 05:20:00,
2013-01-27 00:25:00,19.4,16.0,30.45,West,268,0.0,-999.0,90,-99.99,,,12.00,ADS-WS1 bash script,2013-01-27 05:25:00,
2013-01-27 00:30:00,19.2,16.0,30.44,West,268,0.0,-999.0,89,-99.99,,,12.00,ADS-WS1 bash script,2013-01-27 05:30:00,
2013-01-27 00:35:00,19.0,16.0,30.45,West,268,0.0,-999.0,90,-99.99,,,12.00,ADS-WS1 bash script,2013-01-27 05:35:00,
2013-01-27 00:40:00,19.0,16.0,30.44,SW,231,0.0,-999.0,90,-99.99,,,12.00,ADS-WS1 bash script,2013-01-27 05:40:00,
2013-01-27 00:45:00,19.0,16.0,30.45,SW,230,0.0,-999.0,90,-99.99,,,12.00,ADS-WS1 bash script,2013-01-27 05:45:00,
2013-01-27 00:50:00,18.8,16.0,30.44,NW,313,0.0,-999.0,90,-99.99,,,12.00,ADS-WS1 bash script,2013-01-27 05:50:00,
2013-01-27 00:55:00,18.8,16.0,30.44,West,268,0.0,-999.0,90,-99.99,,,12.00,ADS-WS1 bash script,2013-01-27 05:55:00,
2013-01-27 01:00:00,18.8,16.0,30.45,West,268,0.0,-999.0,89,-99.99,,,12.00,ADS-WS1 bash script,2013-01-27 06:00:00,
2013-01-27 01:05:00,18.8,16.0,30.45,West,273,0.0,-999.0,91,-99.99,,,12.00,ADS-WS1 bash script,2013-01-27 06:05:00,
2013-01-27 01:15:00,18.7,16.0,30.44,West,273,1.0,-999.0,90,-99.99,,,12.00,ADS-WS1 bash script,2013-01-27 06:15:00,
2013-01-27 01:20:00,18.5,15.0,30.45,West,268,0.0,-999.0,90,-99.99,,,12.00,ADS-WS1 bash script,2013-01-27 06:20:00,
2013-01-27 01:25:00,17.9,15.0,30.45,West,268,0.0,-999.0,90,-99.99,,,12.00,ADS-WS1 bash script,2013-01-27 06:25:00,
2013-01-27 01:30:00,17.6,15.0,30.44,West,268,0.0,-999.0,90,-99.99,,,12.00,ADS-WS1 bash script,2013-01-27 06:30:00,
2013-01-27 01:35:00,17.4,14.0,30.44,SW,225,0.0,-999.0,90,-99.99,,,12.00,ADS-WS1 bash script,2013-01-27 06:35:00,
2013-01-27 01:40:00,17.2,14.0,30.44,SW,227,0.0,-999.0,90,-99.99,,,12.00,ADS-WS1 bash script,2013-01-27 06:40:00,
2013-01-27 01:45:00,17.0,14.0,30.45,SW,224,0.0,-999.0,90,-99.99,,,12.00,ADS-WS1 bash script,2013-01-27 06:45:00,
2013-01-27 01:50:00,16.9,14.0,30.45,SW,225,0.0,-999.0,90,-99.99,,,12.00,ADS-WS1 bash script,2013-01-27 06:50:00,
2013-01-27 01:55:00,16.7,14.0,30.45,SW,225,0.0,-999.0,90,-99.99,,,12.00,ADS-WS1 bash script,2013-01-27 06:55:00,
2013-01-27 02:00:00,16.7,14.0,30.45,NNW,337,0.0,-999.0,90,-99.99,,,12.00,ADS-WS1 bash script,2013-01-27 07:00:00,
2013-01-27 02:05:00,16.5,13.0,30.45,WNW,290,0.0,-999.0,90,-99.99,,,12.00,ADS-WS1 bash script,2013-01-27 07:05:00,
2013-01-27 02:13:00,16.3,13.0,30.45,North,0,0.0,-999.0,89,-99.99,,,12.00,ADS-WS1 bash script,2013-01-27 07:13:00,
2013-01-27 02:20:00,16.0,13.0,30.45,North,351,0.0,-999.0,90,-99.99,,,12.00,ADS-WS1 bash script,2013-01-27 07:20:00,
2013-01-27 02:25:00,16.0,13.0,30.45,North,351,0.0,-999.0,90,-99.99,,,12.00,ADS-WS1 bash script,2013-01-27 07:25:00,
2013-01-27 02:30:00,15.8,13.0,30.45,North,352,0.0,-999.0,90,-99.99,,,12.00,ADS-WS1 bash script,2013-01-27 07:30:00,
2013-01-27 02:35:00,15.8,13.0,30.45,South,179,0.0,-999.0,91,-99.99,,,12.00,ADS-WS1 bash script,2013-01-27 07:35:00,
2013-01-27 02:40:00,15.6,13.0,30.45,South,179,0.0,-999.0,90,-99.99,,,12.00,ADS-WS1 bash script,2013-01-27 07:40:00,
2013-01-27 02:45:00,15.6,13.0,30.45,South,179,0.0,-999.0,90,-99.99,,,12.00,ADS-WS1 bash script,2013-01-27 07:45:00,
2013-01-27 02:50:00,15.8,13.0,30.45,South,179,0.0,-999.0,91,-99.99,,,12.00,ADS-WS1 bash script,2013-01-27 07:50:00,
2013-01-27 02:55:00,16.0,13.0,30.45,NE,43,0.0,-999.0,90,-99.99,,,12.00,ADS-WS1 bash script,2013-01-27 07:55:00,
2013-01-27 03:00:00,16.3,13.0,30.45,NE,43,0.0,-999.0,90,-99.99,,,12.00,ADS-WS1 bash script,2013-01-27 08:00:00,
2013-01-27 03:05:00,16.3,13.0,30.45,NNW,344,0.0,-999.0,91,-99.99,,,12.00,ADS-WS1 bash script,2013-01-27 08:05:00,
2013-01-27 03:15:00,16.0,13.0,30.45,North,0,0.0,-999.0,89,-99.99,,,12.00,ADS-WS1 bash script,2013-01-27 08:15:00,
2013-01-27 03:20:00,15.8,13.0,30.45,SE,134,0.0,-999.0,90,-99.99,,,12.00,ADS-WS1 bash script,2013-01-27 08:20:00,
2013-01-27 03:25:00,15.4,12.0,30.44,SE,134,0.0,-999.0,90,-99.99,,,12.00,ADS-WS1 bash script,2013-01-27 08:25:00,
2013-01-27 03:30:00,15.2,12.0,30.44,South,179,0.0,-999.0,90,-99.99,,,12.00,ADS-WS1 bash script,2013-01-27 08:30:00,
2013-01-27 03:35:00,15.1,12.0,30.44,South,179,0.0,-999.0,89,-99.99,,,12.00,ADS-WS1 bash script,2013-01-27 08:35:00,
2013-01-27 03:40:00,14.9,12.0,30.44,South,179,0.0,-999.0,90,-99.99,,,12.00,ADS-WS1 bash script,2013-01-27 08:40:00,
2013-01-27 03:45:00,14.7,12.0,30.44,South,179,0.0,-999.0,90,-99.99,,,12.00,ADS-WS1 bash script,2013-01-27 08:45:00,
2013-01-27 03:50:00,14.5,11.0,30.44,South,179,0.0,-999.0,90,-99.99,,,12.00,ADS-WS1 bash script,2013-01-27 08:50:00,
2013-01-27 03:55:00,14.2,11.0,30.44,South,179,0.0,-999.0,90,-99.99,,,12.00,ADS-WS1 bash script,2013-01-27 08:55:00,
2013-01-27 04:00:00,14.0,11.0,30.44,South,179,0.0,-999.0,89,-99.99,,,12.00,ADS-WS1 bash script,2013-01-27 09:00:00,
2013-01-27 04:05:00,14.0,11.0,30.44,South,179,0.0,-999.0,89,-99.99,,,12.00,ADS-WS1 bash script,2013-01-27 09:05:00,
2013-01-27 04:10:00,13.6,11.0,30.44,South,179,0.0,-999.0,89,-99.99,,,12.00,ADS-WS1 bash script,2013-01-27 09:10:00,
2013-01-27 04:15:00,13.6,11.0,30.45,South,179,0.0,-999.0,90,-99.99,,,12.00,ADS-WS1 bash script,2013-01-27 09:15:00,
2013-01-27 04:20:00,13.4,10.0,30.45,South,179,0.0,-999.0,90,-99.99,,,12.00,ADS-WS1 bash script,2013-01-27 09:20:00,
2013-01-27 04:25:00,13.4,9.0,30.44,South,179,0.0,-999.0,88,-99.99,,,12.00,ADS-WS1 bash script,2013-01-27 09:25:00,
2013-01-27 04:30:00,13.6,11.0,30.45,NNW,335,0.0,-999.0,90,-99.99,,,12.00,ADS-WS1 bash script,2013-01-27 09:30:00,
2013-01-27 04:35:00,13.6,11.0,30.45,North,0,0.0,-999.0,90,-99.99,,,12.00,ADS-WS1 bash script,2013-01-27 09:35:00,
2013-01-27 04:40:00,13.6,11.0,30.44,NE,43,0.0,-999.0,89,-99.99,,,12.00,ADS-WS1 bash script,2013-01-27 09:40:00,
2013-01-27 04:50:00,13.8,10.0,30.45,NW,313,0.0,-999.0,88,-99.99,,,12.00,ADS-WS1 bash script,2013-01-27 09:50:00,
2013-01-27 04:55:00,13.6,10.0,30.45,NW,304,0.0,-999.0,88,-99.99,,,12.00,ADS-WS1 bash script,2013-01-27 09:55:00,
2013-01-27 05:05:00,13.4,10.0,30.45,NW,313,0.0,-999.0,89,-99.99,,,12.00,ADS-WS1 bash script,2013-01-27 10:05:00,
2013-01-27 05:10:00,13.4,9.0,30.46,NW,313,0.0,-999.0,88,-99.99,,,12.00,ADS-WS1 bash script,2013-01-27 10:10:00,
2013-01-27 05:15:00,13.4,10.0,30.46,NNW,335,1.0,-999.0,89,-99.99,,,12.00,ADS-WS1 bash script,2013-01-27 10:15:00,
2013-01-27 05:20:00,13.4,9.0,30.46,North,0,0.0,-999.0,88,-99.99,,,12.00,ADS-WS1 bash script,2013-01-27 10:20:00,
2013-01-27 05:25:00,13.1,9.0,30.46,NNW,347,0.0,-999.0,88,-99.99,,,12.00,ADS-WS1 bash script,2013-01-27 10:25:00,
2013-01-27 05:30:00,13.1,9.0,30.46,NE,43,0.0,-999.0,88,-99.99,,,12.00,ADS-WS1 bash script,2013-01-27 10:30:00,
2013-01-27 05:35:00,13.1,9.0,30.45,South,179,1.0,-999.0,88,-99.99,,,12.00,ADS-WS1 bash script,2013-01-27 10:35:00,
2013-01-27 05:40:00,13.1,9.0,30.46,East,94,0.0,-999.0,88,-99.99,,,12.00,ADS-WS1 bash script,2013-01-27 10:40:00,
2013-01-27 05:45:00,13.1,9.0,30.47,NE,43,1.0,-999.0,88,-99.99,,,12.00,ADS-WS1 bash script,2013-01-27 10:45:00,
2013-01-27 05:50:00,13.4,10.0,30.47,North,354,0.0,-999.0,89,-99.99,,,12.00,ADS-WS1 bash script,2013-01-27 10:50:00,
2013-01-27 05:55:00,13.4,9.0,30.47,NW,313,0.0,-999.0,88,-99.99,,,12.00,ADS-WS1 bash script,2013-01-27 10:55:00,
2013-01-27 06:00:00,13.6,11.0,30.47,WNW,302,0.0,-999.0,89,-99.99,,,12.00,ADS-WS1 bash script,2013-01-27 11:00:00,
2013-01-27 06:10:00,14.0,11.0,30.46,SE,134,0.0,-999.0,89,-99.99,,,12.00,ADS-WS1 bash script,2013-01-27 11:10:00,
2013-01-27 06:15:00,14.2,11.0,30.46,SE,134,0.0,-999.0,89,-99.99,,,12.00,ADS-WS1 bash script,2013-01-27 11:15:00,
2013-01-27 06:20:00,14.3,11.0,30.45,East,83,0.0,-999.0,89,-99.99,,,12.00,ADS-WS1 bash script,2013-01-27 11:20:00,
2013-01-27 06:25:00,14.7,12.0,30.46,East,84,0.0,-999.0,89,-99.99,,,12.00,ADS-WS1 bash script,2013-01-27 11:25:00,
2013-01-27 06:30:00,14.9,12.0,30.45,NE,43,0.0,-999.0,89,-99.99,,,12.00,ADS-WS1 bash script,2013-01-27 11:30:00,
2013-01-27 06:35:00,15.1,11.0,30.47,NNW,338,0.0,-999.0,88,-99.99,,,12.00,ADS-WS1 bash script,2013-01-27 11:35:00,
2013-01-27 06:40:00,15.2,11.0,30.47,NW,306,0.0,-999.0,88,-99.99,,,12.00,ADS-WS1 bash script,2013-01-27 11:40:00,
2013-01-27 06:45:00,15.2,11.0,30.46,NW,313,0.0,-999.0,88,-99.99,,,12.00,ADS-WS1 bash script,2013-01-27 11:45:00,
2013-01-27 06:50:00,15.4,11.0,30.47,NE,43,0.0,-999.0,88,-99.99,,,12.00,ADS-WS1 bash script,2013-01-27 11:50:00,
2013-01-27 06:55:00,15.6,12.0,30.47,West,268,0.0,-999.0,88,-99.99,,,12.00,ADS-WS1 bash script,2013-01-27 11:55:00,
2013-01-27 07:00:00,15.8,13.0,30.46,West,268,0.0,-999.0,89,-99.99,,,12.00,ADS-WS1 bash script,2013-01-27 12:00:00,
2013-01-27 07:05:00,15.8,13.0,30.45,South,179,0.0,-999.0,89,-99.99,,,12.00,ADS-WS1 bash script,2013-01-27 12:05:00,
2013-01-27 07:10:00,15.8,12.0,30.45,NE,43,0.0,-999.0,88,-99.99,,,12.00,ADS-WS1 bash script,2013-01-27 12:10:00,
2013-01-27 07:15:00,15.6,13.0,30.45,East,88,0.0,-999.0,89,-99.99,,,12.00,ADS-WS1 bash script,2013-01-27 12:15:00,
2013-01-27 07:20:00,15.6,13.0,30.45,East,79,0.0,-999.0,89,-99.99,,,12.00,ADS-WS1 bash script,2013-01-27 12:20:00,
2013-01-27 07:25:00,15.2,11.0,30.45,NE,43,0.0,-999.0,88,-99.99,,,12.00,ADS-WS1 bash script,2013-01-27 12:25:00,
2013-01-27 07:30:00,15.1,11.0,30.46,East,80,0.0,-999.0,87,-99.99,,,12.00,ADS-WS1 bash script,2013-01-27 12:30:00,
2013-01-27 07:35:00,14.9,11.0,30.46,East,86,0.0,-999.0,87,-99.99,,,12.00,ADS-WS1 bash script,2013-01-27 12:35:00,
2013-01-27 07:45:00,14.3,10.0,30.46,West,268,0.0,-999.0,87,-99.99,,,12.00,ADS-WS1 bash script,2013-01-27 12:45:00,
2013-01-27 07:50:00,14.2,10.0,30.47,West,268,0.0,-999.0,87,-99.99,,,12.00,ADS-WS1 bash script,2013-01-27 12:50:00,
2013-01-27 08:00:00,14.0,10.0,30.47,West,268,0.0,-999.0,87,-99.99,,,12.00,ADS-WS1 bash script,2013-01-27 13:00:00,
2013-01-27 08:05:00,13.8,10.0,30.47,West,268,0.0,-999.0,88,-99.99,,,12.00,ADS-WS1 bash script,2013-01-27 13:05:00,
2013-01-27 08:10:00,13.6,10.0,30.47,SE,134,1.0,-999.0,87,-99.99,,,12.00,ADS-WS1 bash script,2013-01-27 13:10:00,
2013-01-27 08:15:00,13.6,11.0,30.46,SE,134,0.0,-999.0,89,-99.99,,,12.00,ADS-WS1 bash script,2013-01-27 13:15:00,
2013-01-27 08:25:00,13.8,10.0,30.46,South,179,1.0,-999.0,87,-99.99,,,12.00,ADS-WS1 bash script,2013-01-27 13:25:00,
2013-01-27 08:30:00,14.2,10.0,30.46,South,186,2.0,-999.0,88,-99.99,,,12.00,ADS-WS1 bash script,2013-01-27 13:30:00,
2013-01-27 08:35:00,14.9,12.0,30.46,South,179,0.0,-999.0,90,-99.99,,,12.00,ADS-WS1 bash script,2013-01-27 13:35:00,
2013-01-27 08:40:00,15.8,13.0,30.46,South,179,0.0,-999.0,90,-99.99,,,12.00,ADS-WS1 bash script,2013-01-27 13:40:00,
2013-01-27 08:45:00,16.5,13.0,30.46,SSW,200,1.0,-999.0,90,-99.99,,,12.00,ADS-WS1 bash script,2013-01-27 13:45:00,
2013-01-27 08:50:00,17.6,15.0,30.47,WSW,252,2.0,-999.0,91,-99.99,,,12.00,ADS-WS1 bash script,2013-01-27 13:50:00,
2013-01-27 08:55:00,18.5,15.0,30.47,WSW,255,1.0,-999.0,90,-99.99,,,12.00,ADS-WS1 bash script,2013-01-27 13:55:00,
2013-01-27 09:05:00,19.6,16.0,30.47,South,179,1.0,-999.0,88,-99.99,,,12.00,ADS-WS1 bash script,2013-01-27 14:05:00,
2013-01-27 09:10:00,19.7,15.0,30.46,SSW,200,1.0,-999.0,86,-99.99,,,12.00,ADS-WS1 bash script,2013-01-27 14:10:00,
2013-01-27 09:20:00,20.5,15.0,30.46,SW,224,1.0,-999.0,85,-99.99,,,12.00,ADS-WS1 bash script,2013-01-27 14:20:00,
2013-01-27 09:25:00,20.6,15.0,30.45,SSW,200,1.0,-999.0,83,-99.99,,,12.00,ADS-WS1 bash script,2013-01-27 14:25:00,
2013-01-27 09:30:00,21.0,15.0,30.45,South,187,1.0,-999.0,83,-99.99,,,12.00,ADS-WS1 bash script,2013-01-27 14:30:00,
2013-01-27 09:35:00,21.3,15.0,30.45,South,186,4.0,-999.0,82,-99.99,,,12.00,ADS-WS1 bash script,2013-01-27 14:35:00,
2013-01-27 09:40:00,21.5,15.0,30.45,South,179,2.0,-999.0,80,-99.99,,,12.00,ADS-WS1 bash script,2013-01-27 14:40:00,
2013-01-27 09:50:00,21.9,15.0,30.45,South,179,1.0,-999.0,79,-99.99,,,12.00,ADS-WS1 bash script,2013-01-27 14:50:00,
2013-01-27 09:55:00,22.2,15.0,30.45,SW,224,2.0,-999.0,78,-99.99,,,12.00,ADS-WS1 bash script,2013-01-27 14:55:00,
2013-01-27 10:00:00,22.4,14.0,30.45,SW,224,2.0,-999.0,76,-99.99,,,12.00,ADS-WS1 bash script,2013-01-27 15:00:00,
2013-01-27 10:05:00,22.8,15.0,30.45,SW,224,2.0,-999.0,76,-99.99,,,12.00,ADS-WS1 bash script,2013-01-27 15:05:00,
2013-01-27 10:10:00,23.1,15.0,30.45,SSW,200,2.0,-999.0,76,-99.99,,,12.00,ADS-WS1 bash script,2013-01-27 15:10:00,
2013-01-27 10:15:00,23.3,14.0,30.45,SSW,208,3.0,-999.0,74,-99.99,,,12.00,ADS-WS1 bash script,2013-01-27 15:15:00,
2013-01-27 10:20:00,23.7,15.0,30.45,South,190,3.0,-999.0,73,-99.99,,,12.00,ADS-WS1 bash script,2013-01-27 15:20:00,
2013-01-27 10:25:00,24.2,14.0,30.45,SSW,200,3.0,-999.0,72,-99.99,,,12.00,ADS-WS1 bash script,2013-01-27 15:25:00,
2013-01-27 10:30:00,24.6,15.0,30.45,SSW,200,3.0,-999.0,70,-99.99,,,12.00,ADS-WS1 bash script,2013-01-27 15:30:00,
2013-01-27 10:35:00,25.1,15.0,30.45,WSW,245,3.0,-999.0,70,-99.99,,,12.00,ADS-WS1 bash script,2013-01-27 15:35:00,
2013-01-27 10:40:00,25.5,16.0,30.45,South,190,5.0,-999.0,70,-99.99,,,12.00,ADS-WS1 bash script,2013-01-27 15:40:00,
2013-01-27 10:50:00,25.8,14.0,30.45,SSW,193,3.0,-999.0,66,-99.99,,,12.00,ADS-WS1 bash script,2013-01-27 15:50:00,
2013-01-27 10:55:00,26.4,14.0,30.45,SSW,200,2.0,-999.0,65,-99.99,,,12.00,ADS-WS1 bash script,2013-01-27 15:55:00,
2013-01-27 11:00:00,26.9,15.0,30.45,South,179,4.0,-999.0,64,-99.99,,,12.00,ADS-WS1 bash script,2013-01-27 16:00:00,
2013-01-27 11:05:00,27.3,14.0,30.45,SSW,200,5.0,-999.0,63,-99.99,,,12.00,ADS-WS1 bash script,2013-01-27 16:05:00,
2013-01-27 11:10:00,27.6,15.0,30.45,SSW,200,4.0,-999.0,62,-99.99,,,12.00,ADS-WS1 bash script,2013-01-27 16:10:00,
2013-01-27 11:15:00,27.6,15.0,30.45,SSW,207,7.0,-999.0,62,-99.99,,,12.00,ADS-WS1 bash script,2013-01-27 16:15:00,
2013-01-27 11:20:00,27.6,14.0,30.45,SE,145,3.0,-999.0,61,-99.99,,,12.00,ADS-WS1 bash script,2013-01-27 16:20:00,
2013-01-27 11:25:00,27.8,14.0,30.45,South,190,4.0,-999.0,60,-99.99,,,12.00,ADS-WS1 bash script,2013-01-27 16:25:00,
2013-01-27 11:35:00,28.0,14.0,30.46,SW,224,9.0,-999.0,61,-99.99,,,12.00,ADS-WS1 bash script,2013-01-27 16:35:00,
2013-01-27 11:40:00,27.8,14.0,30.45,SSW,211,5.0,-999.0,61,-99.99,,,12.00,ADS-WS1 bash script,2013-01-27 16:40:00,
2013-01-27 11:50:00,27.5,15.0,30.45,South,173,4.0,-999.0,63,-99.99,,,12.00,ADS-WS1 bash script,2013-01-27 16:50:00,
2013-01-27 11:55:00,27.3,14.0,30.45,WSW,237,4.0,-999.0,63,-99.99,,,12.00,ADS-WS1 bash script,2013-01-27 16:55:00,
2013-01-27 12:00:00,27.1,15.0,30.44,South,191,4.0,-999.0,64,-99.99,,,12.00,ADS-WS1 bash script,2013-01-27 17:00:00,
2013-01-27 12:05:00,27.1,15.0,30.44,SW,228,3.0,-999.0,64,-99.99,,,12.00,ADS-WS1 bash script,2013-01-27 17:05:00,
2013-01-27 12:10:00,27.1,15.0,30.43,SSW,197,2.0,-999.0,64,-99.99,,,12.00,ADS-WS1 bash script,2013-01-27 17:10:00,
2013-01-27 12:15:00,27.3,15.0,30.43,SSE,163,1.0,-999.0,65,-99.99,,,12.00,ADS-WS1 bash script,2013-01-27 17:15:00,
2013-01-27 12:20:00,27.5,16.0,30.43,SSW,210,8.0,-999.0,64,-99.99,,,12.00,ADS-WS1 bash script,2013-01-27 17:20:00,
2013-01-27 12:25:00,27.5,16.0,30.42,SW,224,2.0,-999.0,65,-99.99,,,12.00,ADS-WS1 bash script,2013-01-27 17:25:00,
2013-01-27 12:30:00,27.6,16.0,30.43,SSW,211,2.0,-999.0,64,-99.99,,,12.00,ADS-WS1 bash script,2013-01-27 17:30:00,
2013-01-27 12:35:00,27.8,15.0,30.42,SSW,200,3.0,-999.0,63,-99.99,,,12.00,ADS-WS1 bash script,2013-01-27 17:35:00,
2013-01-27 12:40:00,27.8,16.0,30.43,SW,217,2.0,-999.0,64,-99.99,,,12.00,ADS-WS1 bash script,2013-01-27 17:40:00,
2013-01-27 12:45:00,28.0,15.0,30.43,South,179,1.0,-999.0,63,-99.99,,,12.00,ADS-WS1 bash script,2013-01-27 17:45:00,
2013-01-27 12:50:00,27.8,16.0,30.43,SSW,210,3.0,-999.0,64,-99.99,,,12.00,ADS-WS1 bash script,2013-01-27 17:50:00,
2013-01-27 12:55:00,28.0,16.0,30.43,South,190,3.0,-999.0,64,-99.99,,,12.00,ADS-WS1 bash script,2013-01-27 17:55:00,
2013-01-27 13:00:00,27.8,15.0,30.42,South,175,1.0,-999.0,63,-99.99,,,12.00,ADS-WS1 bash script,2013-01-27 18:00:00,
2013-01-27 13:05:00,28.0,15.0,30.42,South,175,3.0,-999.0,63,-99.99,,,12.00,ADS-WS1 bash script,2013-01-27 18:05:00,
2013-01-27 13:10:00,28.0,16.0,30.41,SW,228,4.0,-999.0,64,-99.99,,,12.00,ADS-WS1 bash script,2013-01-27 18:10:00,
2013-01-27 13:15:00,28.2,16.0,30.42,SW,220,2.0,-999.0,64,-99.99,,,12.00,ADS-WS1 bash script,2013-01-27 18:15:00,
2013-01-27 13:25:00,28.5,16.0,30.41,South,173,3.0,-999.0,64,-99.99,,,12.00,ADS-WS1 bash script,2013-01-27 18:25:00,
2013-01-27 13:30:00,28.7,16.0,30.40,SE,134,4.0,-999.0,62,-99.99,,,12.00,ADS-WS1 bash script,2013-01-27 18:30:00,
2013-01-27 13:35:00,28.9,15.0,30.40,SW,220,1.0,-999.0,61,-99.99,,,12.00,ADS-WS1 bash script,2013-01-27 18:35:00,
2013-01-27 13:40:00,28.9,16.0,30.39,West,265,1.0,-999.0,62,-99.99,,,12.00,ADS-WS1 bash script,2013-01-27 18:40:00,
2013-01-27 13:45:00,29.1,15.0,30.39,South,179,1.0,-999.0,61,-99.99,,,12.00,ADS-WS1 bash script,2013-01-27 18:45:00,
2013-01-27 13:50:00,29.1,15.0,30.38,SE,128,3.0,-999.0,61,-99.99,,,12.00,ADS-WS1 bash script,2013-01-27 18:50:00,
2013-01-27 13:55:00,29.3,15.0,30.38,South,173,2.0,-999.0,60,-99.99,,,12.00,ADS-WS1 bash script,2013-01-27 18:55:00,
2013-01-27 14:00:00,29.4,15.0,30.38,South,176,3.0,-999.0,60,-99.99,,,12.00,ADS-WS1 bash script,2013-01-27 19:00:00,
2013-01-27 14:05:00,29.6,16.0,30.38,South,183,3.0,-999.0,61,-99.99,,,12.00,ADS-WS1 bash script,2013-01-27 19:05:00,
2013-01-27 14:10:00,30.0,16.0,30.38,SSW,207,2.0,-999.0,61,-99.99,,,12.00,ADS-WS1 bash script,2013-01-27 19:10:00,
2013-01-27 14:15:00,30.0,16.0,30.37,South,182,2.0,-999.0,59,-99.99,,,12.00,ADS-WS1 bash script,2013-01-27 19:15:00,
2013-01-27 14:20:00,29.8,16.0,30.37,SSE,152,3.0,-999.0,61,-99.99,,,12.00,ADS-WS1 bash script,2013-01-27 19:20:00,
2013-01-27 14:25:00,30.0,16.0,30.37,SSE,159,3.0,-999.0,60,-99.99,,,12.00,ADS-WS1 bash script,2013-01-27 19:25:00,
2013-01-27 14:35:00,30.3,16.0,30.36,SE,134,2.0,-999.0,59,-99.99,,,14.00,ADS-WS1 bash script,2013-01-27 19:35:00,
2013-01-27 14:40:00,30.3,16.0,30.35,SSW,197,1.0,-999.0,60,-99.99,,,14.00,ADS-WS1 bash script,2013-01-27 19:40:00,
2013-01-27 14:45:00,30.3,16.0,30.35,South,187,4.0,-999.0,59,-99.99,,,14.00,ADS-WS1 bash script,2013-01-27 19:45:00,
2013-01-27 14:50:00,30.7,17.0,30.35,SSW,197,2.0,-999.0,59,-99.99,,,14.00,ADS-WS1 bash script,2013-01-27 19:50:00,
2013-01-27 14:55:00,30.7,16.0,30.35,South,186,4.0,-999.0,58,-99.99,,,14.00,ADS-WS1 bash script,2013-01-27 19:55:00,
2013-01-27 15:00:00,30.3,16.0,30.35,South,183,4.0,-999.0,59,-99.99,,,14.00,ADS-WS1 bash script,2013-01-27 20:00:00,
2013-01-27 15:05:00,30.2,16.0,30.35,SSE,156,3.0,-999.0,59,-99.99,,,14.00,ADS-WS1 bash script,2013-01-27 20:05:00,
2013-01-27 15:10:00,30.2,16.0,30.35,South,179,2.0,-999.0,61,-99.99,,,14.00,ADS-WS1 bash script,2013-01-27 20:10:00,
2013-01-27 15:15:00,30.2,17.0,30.34,South,179,3.0,-999.0,62,-99.99,,,15.00,ADS-WS1 bash script,2013-01-27 20:15:00,
2013-01-27 15:20:00,30.2,17.0,30.34,South,180,4.0,-999.0,63,-99.99,,,15.00,ADS-WS1 bash script,2013-01-27 20:20:00,
2013-01-27 15:25:00,30.0,16.0,30.34,South,179,4.0,-999.0,61,-99.99,,,15.00,ADS-WS1 bash script,2013-01-27 20:25:00,
2013-01-27 15:30:00,30.0,17.0,30.34,South,180,3.0,-999.0,62,-99.99,,,15.00,ADS-WS1 bash script,2013-01-27 20:30:00,
2013-01-27 15:35:00,30.0,17.0,30.33,South,179,3.0,-999.0,62,-99.99,,,0.00,ADS-WS1 bash script,2013-01-27 20:35:00,
2013-01-27 15:40:00,29.8,17.0,30.33,SSE,152,5.0,-999.0,62,-99.99,,,0.00,ADS-WS1 bash script,2013-01-27 20:40:00,
2013-01-27 15:45:00,29.8,18.0,30.33,South,179,2.0,-999.0,64,-99.99,,,0.00,ADS-WS1 bash script,2013-01-27 20:45:00,
2013-01-27 15:50:00,29.6,17.0,30.33,SSE,162,4.0,-999.0,63,-99.99,,,1.00,ADS-WS1 bash script,2013-01-27 20:50:00,
2013-01-27 15:55:00,29.6,18.0,30.33,South,179,4.0,-999.0,64,-99.99,,,2.00,ADS-WS1 bash script,2013-01-27 20:55:00,
2013-01-27 16:05:00,29.8,18.0,30.33,SSE,160,3.0,-999.0,65,-99.99,,,2.00,ADS-WS1 bash script,2013-01-27 21:05:00,
2013-01-27 16:10:00,29.8,18.0,30.32,South,169,1.0,-999.0,65,-99.99,,,2.00,ADS-WS1 bash script,2013-01-27 21:10:00,
2013-01-27 16:20:00,29.4,17.0,30.32,South,179,2.0,-999.0,65,-99.99,,,2.00,ADS-WS1 bash script,2013-01-27 21:20:00,
2013-01-27 16:25:00,29.4,17.0,30.32,SSE,160,2.0,-999.0,66,-99.99,,,2.00,ADS-WS1 bash script,2013-01-27 21:25:00,
2013-01-27 16:30:00,29.4,18.0,30.32,SE,138,6.0,-999.0,67,-99.99,,,2.00,ADS-WS1 bash script,2013-01-27 21:30:00,
2013-01-27 16:35:00,29.3,18.0,30.32,ESE,115,2.0,-999.0,67,-99.99,,,2.00,ADS-WS1 bash script,2013-01-27 21:35:00,
2013-01-27 16:40:00,29.3,18.0,30.32,SSE,166,2.0,-999.0,69,-99.99,,,2.00,ADS-WS1 bash script,2013-01-27 21:40:00,
2013-01-27 16:45:00,29.3,19.0,30.32,SE,134,2.0,-999.0,70,-99.99,,,2.00,ADS-WS1 bash script,2013-01-27 21:45:00,
2013-01-27 16:50:00,29.1,19.0,30.32,SE,145,3.0,-999.0,70,-99.99,,,2.00,ADS-WS1 bash script,2013-01-27 21:50:00,
2013-01-27 17:00:00,28.7,19.0,30.32,SE,134,4.0,-999.0,71,-99.99,,,2.00,ADS-WS1 bash script,2013-01-27 22:00:00,
2013-01-27 17:05:00,28.5,18.0,30.32,South,179,4.0,-999.0,72,-99.99,,,2.00,ADS-WS1 bash script,2013-01-27 22:05:00,
2013-01-27 17:10:00,28.4,18.0,30.33,SE,134,3.0,-999.0,72,-99.99,,,2.00,ADS-WS1 bash script,2013-01-27 22:10:00,
2013-01-27 17:15:00,28.4,18.0,30.33,East,95,3.0,-999.0,72,-99.99,,,2.00,ADS-WS1 bash script,2013-01-27 22:15:00,
2013-01-27 17:25:00,28.2,19.0,30.32,South,179,2.0,-999.0,75,-99.99,,,2.00,ADS-WS1 bash script,2013-01-27 22:25:00,
2013-01-27 17:30:00,28.4,19.0,30.33,SE,134,2.0,-999.0,75,-99.99,,,2.00,ADS-WS1 bash script,2013-01-27 22:30:00,
2013-01-27 17:35:00,28.4,20.0,30.34,South,179,2.0,-999.0,76,-99.99,,,2.00,ADS-WS1 bash script,2013-01-27 22:35:00,
2013-01-27 17:40:00,28.4,19.0,30.34,South,179,4.0,-999.0,75,-99.99,,,2.00,ADS-WS1 bash script,2013-01-27 22:40:00,
2013-01-27 17:45:00,28.2,19.0,30.33,South,176,3.0,-999.0,75,-99.99,,,2.00,ADS-WS1 bash script,2013-01-27 22:45:00,
2013-01-27 17:50:00,28.0,20.0,30.33,SSE,158,3.0,-999.0,76,-99.99,,,2.00,ADS-WS1 bash script,2013-01-27 22:50:00,
2013-01-27 17:55:00,28.0,20.0,30.33,SSE,152,6.0,-999.0,76,-99.99,,,2.00,ADS-WS1 bash script,2013-01-27 22:55:00,
2013-01-27 18:05:00,27.8,20.0,30.34,SSE,149,2.0,-999.0,77,-99.99,,,2.00,ADS-WS1 bash script,2013-01-27 23:05:00,
2013-01-27 18:10:00,27.6,21.0,30.34,South,179,4.0,-999.0,80,-99.99,,,2.00,ADS-WS1 bash script,2013-01-27 23:10:00,
2013-01-27 18:15:00,27.5,22.0,30.35,SSE,162,3.0,-999.0,82,-99.99,,,2.00,ADS-WS1 bash script,2013-01-27 23:15:00,
2013-01-27 18:25:00,27.1,22.0,30.34,South,179,3.0,-999.0,84,-99.99,,,2.00,ADS-WS1 bash script,2013-01-27 23:25:00,
2013-01-27 18:30:00,26.9,23.0,30.34,SE,134,4.0,-999.0,87,-99.99,,,2.00,ADS-WS1 bash script,2013-01-27 23:30:00,
2013-01-27 18:35:00,26.7,23.0,30.34,South,179,3.0,-999.0,87,-99.99,,,2.00,ADS-WS1 bash script,2013-01-27 23:35:00,
2013-01-27 18:40:00,26.7,23.0,30.34,South,179,1.0,-999.0,88,-99.99,,,2.00,ADS-WS1 bash script,2013-01-27 23:40:00,
2013-01-27 18:45:00,26.6,23.0,30.33,South,173,2.0,-999.0,88,-99.99,,,2.00,ADS-WS1 bash script,2013-01-27 23:45:00,
2013-01-27 18:55:00,26.4,23.0,30.32,South,179,2.0,-999.0,89,-99.99,,,2.00,ADS-WS1 bash script,2013-01-27 23:55:00,
2013-01-27 19:00:00,26.4,23.0,30.32,SSE,166,2.0,-999.0,89,-99.99,,,2.00,ADS-WS1 bash script,2013-01-28 00:00:00,
2013-01-27 19:05:00,26.4,23.0,30.32,South,179,5.0,-999.0,91,-99.99,,,2.00,ADS-WS1 bash script,2013-01-28 00:05:00,
2013-01-27 19:10:00,26.4,23.0,30.32,South,179,2.0,-999.0,90,-99.99,,,2.00,ADS-WS1 bash script,2013-01-28 00:10:00,
2013-01-27 19:15:00,26.4,23.0,30.31,ESE,111,3.0,-999.0,90,-99.99,,,2.00,ADS-WS1 bash script,2013-01-28 00:15:00,
2013-01-27 19:20:00,26.4,23.0,30.31,South,179,4.0,-999.0,90,-99.99,,,2.00,ADS-WS1 bash script,2013-01-28 00:20:00,
2013-01-27 19:25:00,26.4,23.0,30.30,ESE,119,4.0,-999.0,91,-99.99,,,2.00,ADS-WS1 bash script,2013-01-28 00:25:00,
2013-01-27 19:30:00,26.6,24.0,30.30,SSE,153,1.0,-999.0,90,-99.99,,,2.00,ADS-WS1 bash script,2013-01-28 00:30:00,
2013-01-27 19:35:00,26.6,24.0,30.31,SSE,162,2.0,-999.0,90,-99.99,,,2.00,ADS-WS1 bash script,2013-01-28 00:35:00,
2013-01-27 19:40:00,26.6,24.0,30.31,SSE,149,3.0,-999.0,91,-99.99,,,2.00,ADS-WS1 bash script,2013-01-28 00:40:00,
2013-01-27 19:45:00,26.6,24.0,30.30,SE,139,3.0,-999.0,91,-99.99,,,2.00,ADS-WS1 bash script,2013-01-28 00:45:00,
2013-01-27 19:50:00,26.6,25.0,30.30,SE,135,4.0,-999.0,92,-99.99,,,2.00,ADS-WS1 bash script,2013-01-28 00:50:00,
2013-01-27 19:55:00,26.7,24.0,30.30,SE,139,5.0,-999.0,90,-99.99,,,2.00,ADS-WS1 bash script,2013-01-28 00:55:00,
2013-01-27 20:00:00,26.7,24.0,30.29,ESE,107,1.0,-999.0,90,-99.99,,,2.00,ADS-WS1 bash script,2013-01-28 01:00:00,
2013-01-27 20:05:00,26.7,24.0,30.30,ESE,107,3.0,-999.0,91,-99.99,,,2.00,ADS-WS1 bash script,2013-01-28 01:05:00,
2013-01-27 20:10:00,26.7,24.0,30.29,SE,129,6.0,-999.0,90,-99.99,,,2.00,ADS-WS1 bash script,2013-01-28 01:10:00,
2013-01-27 20:15:00,26.7,24.0,30.28,SE,145,5.0,-999.0,91,-99.99,,,2.00,ADS-WS1 bash script,2013-01-28 01:15:00,
2013-01-27 20:20:00,26.7,24.0,30.28,NW,307,4.0,-999.0,91,-99.99,,,2.00,ADS-WS1 bash script,2013-01-28 01:20:00,
2013-01-27 20:25:00,26.7,24.0,30.28,East,100,3.0,-999.0,91,-99.99,,,2.00,ADS-WS1 bash script,2013-01-28 01:25:00,
2013-01-27 20:30:00,26.7,24.0,30.26,ESE,111,6.0,-999.0,91,-99.99,,,2.00,ADS-WS1 bash script,2013-01-28 01:30:00,
2013-01-27 20:35:00,26.9,24.0,30.26,SE,134,6.0,-999.0,91,-99.99,,,2.00,ADS-WS1 bash script,2013-01-28 01:35:00,
2013-01-27 20:40:00,26.9,25.0,30.26,ESE,121,5.0,-999.0,92,-99.99,,,2.00,ADS-WS1 bash script,2013-01-28 01:40:00,
2013-01-27 20:45:00,26.9,25.0,30.28,SW,215,4.0,-999.0,93,-99.99,,,2.00,ADS-WS1 bash script,2013-01-28 01:45:00,
2013-01-27 20:50:00,27.1,25.0,30.27,South,179,5.0,-999.0,92,-99.99,,,2.00,ADS-WS1 bash script,2013-01-28 01:50:00,
2013-01-27 20:55:00,27.1,24.0,30.26,South,179,7.0,-999.0,91,-99.99,,,2.00,ADS-WS1 bash script,2013-01-28 01:55:00,
2013-01-27 21:00:00,27.1,24.0,30.25,South,179,3.0,-999.0,90,-99.99,,,2.00,ADS-WS1 bash script,2013-01-28 02:00:00,
2013-01-27 21:05:00,27.1,24.0,30.22,SE,141,6.0,-999.0,91,-99.99,,,2.00,ADS-WS1 bash script,2013-01-28 02:05:00,
2013-01-27 21:10:00,27.3,25.0,30.23,SE,128,11.0,-999.0,92,-99.99,,,2.00,ADS-WS1 bash script,2013-01-28 02:10:00,
2013-01-27 21:20:00,27.5,25.0,30.23,SSW,211,5.0,-999.0,91,-99.99,,,2.00,ADS-WS1 bash script,2013-01-28 02:20:00,
2013-01-27 21:25:00,27.5,25.0,30.22,South,179,5.0,-999.0,91,-99.99,,,2.00,ADS-WS1 bash script,2013-01-28 02:25:00,
2013-01-27 21:30:00,27.6,26.0,30.23,SE,134,3.0,-999.0,92,-99.99,,,2.00,ADS-WS1 bash script,2013-01-28 02:30:00,
2013-01-27 21:35:00,27.6,25.0,30.22,SE,134,4.0,-999.0,91,-99.99,,,2.00,ADS-WS1 bash script,2013-01-28 02:35:00,
2013-01-27 21:40:00,27.8,25.0,30.22,SE,134,3.0,-999.0,91,-99.99,,,2.00,ADS-WS1 bash script,2013-01-28 02:40:00,
2013-01-27 21:45:00,28.0,25.0,30.22,SSE,166,6.0,-999.0,91,-99.99,,,2.00,ADS-WS1 bash script,2013-01-28 02:45:00,
2013-01-27 21:50:00,28.2,26.0,30.22,South,170,6.0,-999.0,92,-99.99,,,2.00,ADS-WS1 bash script,2013-01-28 02:50:00,
2013-01-27 21:55:00,28.2,26.0,30.21,South,179,3.0,-999.0,93,-99.99,,,2.00,ADS-WS1 bash script,2013-01-28 02:55:00,
2013-01-27 22:00:00,28.4,26.0,30.21,SSW,206,3.0,-999.0,92,-99.99,,,2.00,ADS-WS1 bash script,2013-01-28 03:00:00,
2013-01-27 22:05:00,28.5,26.0,30.21,SSE,166,5.0,-999.0,92,-99.99,,,2.00,ADS-WS1 bash script,2013-01-28 03:05:00,
2013-01-27 22:10:00,28.5,26.0,30.22,South,179,5.0,-999.0,92,-99.99,,,2.00,ADS-WS1 bash script,2013-01-28 03:10:00,
2013-01-27 22:15:00,28.7,27.0,30.22,ESE,111,5.0,-999.0,93,-99.99,,,2.00,ADS-WS1 bash script,2013-01-28 03:15:00,
2013-01-27 22:20:00,28.9,27.0,30.22,SSE,152,5.0,-999.0,92,-99.99,,,2.00,ADS-WS1 bash script,2013-01-28 03:20:00,
2013-01-27 22:25:00,29.1,27.0,30.22,South,179,2.0,-999.0,92,-99.99,,,2.00,ADS-WS1 bash script,2013-01-28 03:25:00,
2013-01-27 22:35:00,29.3,27.0,30.19,SSE,163,4.0,-999.0,92,-99.99,,,2.00,ADS-WS1 bash script,2013-01-28 03:35:00,
2013-01-27 22:40:00,29.3,26.0,30.18,SSE,156,3.0,-999.0,90,-99.99,,,2.00,ADS-WS1 bash script,2013-01-28 03:40:00,
2013-01-27 22:50:00,29.4,26.0,30.18,South,179,3.0,-999.0,90,-99.99,,,2.00,ADS-WS1 bash script,2013-01-28 03:50:00,
2013-01-27 22:55:00,29.4,26.0,30.17,SSW,211,8.0,-999.0,89,-99.99,,,2.00,ADS-WS1 bash script,2013-01-28 03:55:00,
2013-01-27 23:00:00,29.6,26.0,30.18,South,179,3.0,-999.0,88,-99.99,,,2.00,ADS-WS1 bash script,2013-01-28 04:00:00,
2013-01-27 23:05:00,29.6,27.0,30.17,South,179,3.0,-999.0,89,-99.99,,,2.00,ADS-WS1 bash script,2013-01-28 04:05:00,
2013-01-27 23:10:00,29.8,26.0,30.16,SW,218,8.0,-999.0,88,-99.99,,,2.00,ADS-WS1 bash script,2013-01-28 04:10:00,
2013-01-27 23:20:00,30.0,26.0,30.14,South,186,4.0,-999.0,88,-99.99,,,2.00,ADS-WS1 bash script,2013-01-28 04:20:00,
2013-01-27 23:25:00,30.2,27.0,30.13,SE,134,13.0,-999.0,89,-99.99,,,2.00,ADS-WS1 bash script,2013-01-28 04:25:00,
2013-01-27 23:30:00,30.5,27.0,30.13,SSE,156,6.0,-999.0,90,-99.99,,,2.00,ADS-WS1 bash script,2013-01-28 04:30:00,
2013-01-27 23:35:00,30.5,27.0,30.12,SE,134,4.0,-999.0,90,-99.99,,,2.00,ADS-WS1 bash script,2013-01-28 04:35:00,
2013-01-27 23:40:00,30.5,27.0,30.10,South,179,6.0,-999.0,90,-99.99,,,2.00,ADS-WS1 bash script,2013-01-28 04:40:00,
2013-01-27 23:45:00,30.5,27.0,30.11,South,183,3.0,-999.0,90,-99.99,,,2.00,ADS-WS1 bash script,2013-01-28 04:45:00,
2013-01-27 23:50:00,30.7,28.0,30.11,South,179,0.0,-999.0,90,-99.99,,,2.00,ADS-WS1 bash script,2013-01-28 04:50:00,
2013-01-27 23:55:00,30.7,28.0,30.12,South,179,0.0,-999.0,90,-99.99,,,2.00,ADS-WS1 bash script,2013-01-28 04:55:00,